Simultaneous Nadir Overpasses (SNOs) Predictions

Prediction of SNOs between AQUA and METOP-B Satellite Orbit:

Table of predicted SNOs for the next 14.0 days since TLE Epoch: 8/19/2016
Index Date (AQUA) Time (AQUA) Lat,Lon (AQUA) SZA (AQUA ) Date (METOP-B) Time (METOP-B) Lat,Lon (METOP-B) SZA (METOP-B ) Distance(km) Time Diff (sec)
1 08/21/2016 21:47:23 73.70,-152.41 61.99 08/21/2016 21:46:35 73.73,-152.39 62.02 3.13 48
2 08/21/2016 22:36:51 -73.81, 15.00 117.89 08/21/2016 22:37:16 -73.79, 15.09 117.91 3.49 25
3 08/24/2016 17:21:37 73.71, -85.98 62.94 08/24/2016 17:21:00 73.70, -86.04 62.95 1.88 37
4 08/24/2016 18:11:04 -73.76, 81.55 116.99 08/24/2016 18:11:41 -73.77, 81.44 116.98 3.39 37
5 08/27/2016 12:55:51 73.72, -19.57 63.93 08/27/2016 12:55:24 73.72, -19.58 63.94 0.77 27
6 08/27/2016 13:45:18 -73.77, 147.96 116.01 08/27/2016 13:46:05 -73.79, 147.91 115.99 3.33 47
7 08/30/2016 07:40:27 -73.21,-119.70 115.62 08/30/2016 07:39:19 -73.18,-121.74 115.58 65.50 68
8 08/30/2016 08:30:04 73.74, 46.83 64.95 08/30/2016 08:29:47 73.74, 46.87 64.95 1.18 17
9 08/30/2016 09:19:31 -73.79,-145.63 114.99 08/30/2016 09:20:28 -73.81,-145.64 114.97 3.05 57
10 09/02/2016 03:14:49 -73.66, -54.19 114.14 09/02/2016 03:13:35 -73.60, -54.39 114.18 8.93 74
11 09/02/2016 04:04:18 73.77, 113.21 65.99 09/02/2016 04:04:11 73.76, 113.31 65.98 3.19 7
12 09/02/2016 04:53:45 -73.81, -79.25 113.95 09/02/2016 04:54:52 -73.83, -79.19 113.94 2.72 67




NCC Satellite Simultaneous Nadir Overpasses (SNOs) Prediction Service
